Tracking 31027 objects as of 19-Jul-2025
HD Live streaming from Space Station
objects crossing your sky now

SL-12 R/B(2)

Track SL-12 R/B(2) now!


NORAD ID: 24815
Int'l Code: 1997-026D
Perigee: 6,427.5 km
Apogee: 35,927.5 km
Inclination: 18.8 °
Period: 758.4 minutes
Semi major axis: 27548 km
RCS: 24.8947 m2 (large)
Launch date: May 24, 1997
Source: Commonwealth of Independent States (former USSR) (CIS)
Launch site: TYURATAM MISSILE AND SPACE COMPLEX (TTMTR)

Note: This is a ROCKET BODY
Your satellite tracking list
ATLAS 2A CENTAUR R/B
Track 1 satellite(s)




NASA's NSSDC Master Catalog

Two Line Element Set (TLE):
1 24815U 97026D   25199.73982424 -.00000115  00000-0  00000-0 0  9997
2 24815  18.7555  45.1605 5354205  11.8087 129.7227  1.89870008195212
Source of the keplerian elements: AFSPC